This is the latest recevied weather packets stored in our database for station/object KE0PRS. If no packets are shown the sender has not sent any weather packets the latest 10 day(s).
| Time | Temp. | Humidity | Pressure | Rain* | Wind** | Luminosity | Snow |
|---|---|---|---|---|---|---|---|
| 1777854349 | 27.22° C | 20% | 1006.8 hPa | 0 mm | - | 36 W/m² | - |
| 1777854047 | 27.22° C | 19% | 1006.9 hPa | 0 mm | - | 42 W/m² | - |
| 1777853744 | 27.78° C | 18% | 1006.7 hPa | 0 mm | - | 58 W/m² | - |
| 1777853440 | 28.33° C | 19% | 1006.9 hPa | 0 mm | - | 65 W/m² | - |
| 1777853137 | 28.33° C | 19% | 1006.9 hPa | 0 mm | - | 75 W/m² | - |
| 1777852835 | 28.33° C | 19% | 1007 hPa | 0 mm | - | 108 W/m² | - |
| 1777852533 | 28.33° C | 19% | 1007.2 hPa | 0 mm | - | 149 W/m² | - |
| 1777852229 | 27.78° C | 19% | 1007.3 hPa | 0 mm | - | 156 W/m² | - |
| 1777851927 | 27.78° C | 18% | 1007.3 hPa | 0 mm | - | 99 W/m² | - |
| 1777851625 | 27.78° C | 19% | 1007.5 hPa | 0 mm | - | 83 W/m² | - |
| 1777851321 | 28.33° C | 17% | 1007.5 hPa | 0 mm | - | 84 W/m² | - |
| 1777851017 | 28.89° C | 18% | 1007.4 hPa | 0 mm | - | 120 W/m² | - |
| 1777850714 | 28.89° C | 18% | 1007.6 hPa | 0 mm | - | 251 W/m² | - |
| 1777850412 | 28.89° C | 17% | 1007.6 hPa | 0 mm | - | 169 W/m² | - |
| 1777850110 | 28.89° C | 18% | 1007.7 hPa | 0 mm | - | 251 W/m² | - |
| 1777849806 | 28.89° C | 18% | 1007.8 hPa | 0 mm | - | 180 W/m² | - |
| 1777849503 | 28.89° C | 18% | 1007.9 hPa | 0 mm | - | 193 W/m² | - |
| 1777849200 | 28.89° C | 18% | 1008 hPa | 0 mm | - | 161 W/m² | - |
| 1777848897 | 29.44° C | 17% | 1007.9 hPa | 0 mm | - | 272 W/m² | - |
| 1777848592 | 30° C | 17% | 1007.8 hPa | 0 mm | - | 268 W/m² | - |
| 1777848289 | 29.44° C | 17% | 1007.8 hPa | 0 mm | - | 347 W/m² | - |
| 1777847987 | 28.89° C | 18% | 1008.1 hPa | 0 mm | - | 361 W/m² | - |
| 1777847685 | 28.33° C | 17% | 1008 hPa | 0 mm | - | 227 W/m² | - |
| 1777847380 | 28.33° C | 18% | 1008.2 hPa | 0 mm | - | 187 W/m² | - |
| 1777847079 | 28.33° C | 18% | 1008.1 hPa | 0 mm | - | 191 W/m² | - |
* Rain latest hour (hover to see other rain measurements)
** Current wind speed in m/s (hover to see current wind gust speed)